Location: Warszawa
(52.2500°N, 21.0000°E)
Time: 15:38:17
(UTC+02:00)

ITUPSAT 1 - Pass Details

Date: 22 April 2024
Orbit: 694 x 707 km, 98.5° (Epoch: 20 May)

Event Time Altitude Azimuth Distance (km) Brightness Sun altitude
Rises 23:57:46 0° 8° (N) 3,094 ? -25.0°
Reaches altitude 10° 00:00:15 10° 358° (N) 2,170 ? -25.1°
Maximum altitude 00:04:18 29° 299° (WNW) 1,266 ? -25.2°
Enters shadow 00:06:21 21° 259° (WSW) 1,540 ? -25.2°
